Regional Weather Roundup
Issued by NWS Green Bay, WI

Home | Current Version | Previous Version | Text Only | Print | Product List | Glossary On
Versions: 1 2 3 4 5 6 7 8 9 10 11 12 13 14 15 16 17 18 19 20 21 22 23 24 25 26 27 28 29 30 31 32 33 34 35 36 37 38 39 40 41 42 43 44 45 46 47 48 49 50
000
ASUS43 KGRB 250900
RWRGRB

NORTH-CENTRAL AND NORTHEAST WISCONSIN REGIONAL WEATHER ROUNDUP
NATIONAL WEATHER SERVICE GREEN BAY WI
400 AM CDT SUN JUN 25 2017

WIZ005-009-010>012-018-019-251000-
NORTH CENTRAL WISCONSIN

CITY           SKY/WX    TMP DP  RH WIND       PRES   REMARKS
IRONWOOD       CLOUDY    52  52 100 NW6       29.97S FOG
MANITOWISH WTR NOT AVBL
ARBOR VITAE    NOT AVBL
EAGLE RIVER    NOT AVBL
LAND O LAKES   CLOUDY    51  50  97 N3        29.97S
RHINELANDER    CLOUDY    51  51 100 NW7       29.96S
PHILLIPS       MOCLDY    48  48 100 CALM      29.98F
ANTIGO         NOT AVBL
TOMAHAWK       NOT AVBL
MERRILL        CLOUDY    49  49 100 W5        29.98S
$$

WIZ013-073-251000-
NORTHEAST WISCONSIN

CITY           SKY/WX    TMP DP  RH WIND       PRES   REMARKS
IRON MOUNTAIN  CLOUDY    52  49  89 NW5       29.91S
MARINETTE      LGT RAIN  53  51  93 CALM      29.92F
$$

WIZ017-030-035>037-045-251000-
CENTRAL WISCONSIN

CITY           SKY/WX    TMP DP  RH WIND       PRES   REMARKS
MEDFORD        NOT AVBL
WAUSAU         PTCLDY    50  48  93 W9        29.96S
MOSINEE        NOT AVBL
MARSHFIELD     CLEAR     49  45  86 W8        30.00R
WISC RAPIDS    CLEAR     49  45  86 W7        30.02S
STEVENS POINT  NOT AVBL
WAUPACA        CLOUDY    53  49  89 W7        29.99S
SHAWANO        NOT AVBL
CLINTONVILLE   NOT AVBL
WAUTOMA        MOCLDY    50  48  93 W6        30.01S
$$

WIZ038-039-048-051-251000-
FOX VALLEY

CITY           SKY/WX    TMP DP  RH WIND       PRES   REMARKS
NWS GREEN BAY  LGT RAIN  53  53 100 SW5       29.95F
APPLETON       NOT AVBL
OSHKOSH        MOCLDY    52  47  83 W7        29.98S
FOND DU LAC    MOCLDY    51  46  83 W7        30.00S
$$

WIZ022-050-052-251000-
EAST CENTRAL WISCONSIN

CITY           SKY/WX    TMP DP  RH WIND       PRES   REMARKS
EPHRAIM        NOT AVBL
WASHINGTON ISL NOT AVBL
STURGEON BAY   LGT RAIN  54  51  90 NW7         N/A
MANITOWOC      NOT AVBL
SHEBOYGAN      CLOUDY    52  48  86 W13       29.98S
$$

LMZ563-521-522-541>543-251000-
LAKESHORE

STATION/POSITION TIME  TEMP    WIND        PRES    VSBY  WAVE
                       AIR SEA DIR/SP/G                  HT/PER
                 (UTC) (F)     (DEG/KT/KT) (MB)    (MI)  (FT/S)
SHEBOYGAN LKSHOR 0800   54     270/ 12/ 14 1015.0S
KEWAUNEE LKSHORE 0824   54     280/  6/  9 1013.7
NORTHPORT PIER   0840   56     290/  7/ 12 1012.9S
N MID LAKE BUOY  0750   57 57  280/ 10/ 12 1013.1F         1
S GREEN BAY BUOY 0830   56     270/ 14/ 16 1013.5F
CHAMBERS ISLAND  0840   55     240/  6/ 10 1012.9F
MENOMINEE LKSHOR 0824          260/  7/ 11 1012.6
$$



USA.gov is the U.S. government's official web portal to all federal, state and local government web resources and services.